Hourly Data Report for September 10, 2017

All times are specified in Local Standard Time (LST). Add 1 hour to adjust for Daylight Saving Time where and when it is observed.

KUGLUKTUK A
NUNAVUT

67°49'00.000" N
115°08'38.000" W
22.60 m
2300903
71938
YCO

Download Data

Hourly Data (September 2017)
Hourly Data Report for September 10, 2017
Temp Definition
°C
Dew Point Temp Definition
°C
Rel Hum Definition
%
Wind Dir Definition
10's deg

Wind Spd Definition
km/h
Visibility Definition
km
Stn Press Definition
kPa
Hmdx Definition


Wind Chill Definition


Weather Definition


TIME
00:00 Legend Double Dagger 6.7 3.1 78 12 11 24.1 100.47     LegendNANA
01:00 Legend Double Dagger 8.5 3.0 68 19 8 24.1 100.43     LegendNANA
02:00 Legend Double Dagger 7.7 3.5 75 26 10 24.1 100.41     Mostly Cloudy
03:00 Legend Double Dagger 7.2 3.6 78 36 2 24.1 100.39     LegendNANA
04:00 Legend Double Dagger 8.2 2.8 69 19 8 24.1 100.37     LegendNANA
05:00 Legend Double Dagger 7.2 3.1 75 18 9 24.1 100.37     Mostly Cloudy
06:00 Legend Double Dagger 5.8 3.0 82 19 11 24.1 100.34     LegendNANA
07:00 Legend Double Dagger 6.2 3.6 83 22 18 24.1 100.31     LegendNANA
08:00 Legend Double Dagger 8.2 4.2 75 22 15 24.1 100.31     Mostly Cloudy
09:00 Legend Double Dagger 9.7 4.6 71 23 8 24.1 100.31     LegendNANA
10:00 Legend Double Dagger 9.9 4.6 70 24 13 24.1 100.31     LegendNANA
11:00 Legend Double Dagger 9.5 5.6 77 34 9 24.1 100.33     Mostly Cloudy
12:00 Legend Double Dagger 8.1 4.8 79 2 19 24.1 100.36     LegendNANA
13:00 Legend Double Dagger 7.9 4.2 78 3 15 24.1 100.39     LegendNANA
14:00 Legend Double Dagger 7.4 4.6 82 2 14 24.1 100.44     Cloudy
15:00 Legend Double Dagger 7.7 5.0 83 1 23 24.1 100.46     LegendNANA
16:00 Legend Double Dagger 7.5 5.4 87 1 21 24.1 100.46     LegendNANA
17:00 Legend Double Dagger 6.8 4.8 88 1 20 24.1 100.48     Cloudy
18:00 Legend Double Dagger 6.4 4.8 89 1 18 24.1 100.51     LegendNANA
19:00 Legend Double Dagger 6.2 5.0 91 36 21 24.1 100.55     LegendNANA
20:00 Legend Double Dagger 5.4 4.5 94 36 24 24.1 100.55     Cloudy
21:00 Legend Double Dagger 5.1 4.1 93 36 28 24.1 100.53     LegendNANA
22:00 Legend Double Dagger 4.8 4.0 95 36 25 12.9 100.52     Rain
23:00 Legend Double Dagger 4.7 3.8 94 36 23 9.7 100.52     Drizzle,Fog

Notes on Data Quality.

Legend

  • E = Estimated
  • M = Missing
  • NA = Not Available
  • ‡ = Partner data that is not subject to review by the National Climate Archives
Date modified: